Flag for Norway Weather past 2 weeks in Ørsta, Norway

Now
36 °F

Partly cloudy.


Feels Like: 32 °F
Forecast: 34 / 39 °F
Wind: 5 mph from Southwest

Location: Alesund / Vigra

Current Time: Mar 31, 2015 at 6:05:59 AM

Latest Report: Mar 31, 2015 at 5:20 AM


Visibility: N/A

Pressure: 28.97 "Hg

Humidity: 81%

Dew point: 30 °F

Location of ØrstaLocation

Historic Weather in Ørsta — Graph

°F

Ørsta temperature yesterday

Maximum temperature yesterday: 45 °F (at 3:50 PM)
Minimum temperature yesterday: 30 °F (at 5:50 AM)
Average temperature yesterday: 38 °F

Past Weeks' High & Low Weather Summary

 TemperatureHumidityPressure
High54 °F (Mar 16, 1:50 PM)100% (Mar 19, 8:50 PM)30.72 "Hg (Mar 19, 8:50 PM)
Low30 °F (Mar 30, 5:50 AM)33% (Mar 21, 9:50 PM)28.88 "Hg (Mar 29, 12:50 AM)
Average41 °F72%29.88 "Hg
* Reported Mar 16 3:20 AM — Mar 31 4:50 AM, Ørsta, Weather by CustomWeather, © 2015

Note: Actual official high and low records may vary slightly from our data, if they occured in-between our weather recording intervals... More about our weather records

Advertising

Ørsta weather history for previous 24 hours

 ConditionsComfort  
Time TempWeatherWind HumidityBarometerVisibility
4:50 AM
Tue, Mar 31
37 °FPassing clouds.8 mph70%28.97 "HgN/A
4:20 AM36 °FPassing clouds.8 mph81%29.00 "HgN/A
3:50 AM36 °FPassing clouds.7 mph81%29.00 "HgN/A
3:20 AM37 °FChilly.7 mph81%29.00 "HgN/A
2:50 AM37 °FPassing clouds.8 mph75%29.00 "HgN/A
2:20 AM36 °FPassing clouds.10 mph87%29.03 "HgN/A
1:50 AM36 °FPartly cloudy.7 mph87%29.03 "HgN/A
1:20 AM34 °FLight rain. Partly cloudy.7 mph93%29.03 "HgN/A
12:50 AM34 °FPartly cloudy.13 mph93%29.06 "HgN/A
12:20 AM36 °FPassing clouds.8 mph87%29.06 "HgN/A
11:50 PM
Mon, Mar 30
34 °FLight rain. Partly cloudy.6 mph93%29.06 "Hg4 mi
10:50 PM37 °FPartly cloudy.10 mph87%29.06 "HgN/A
10:20 PM37 °FPassing clouds.9 mph87%29.06 "HgN/A
9:50 PM37 °FPassing clouds.13 mph87%29.09 "HgN/A
9:20 PM37 °FSprinkles. Partly cloudy.13 mph87%29.09 "HgN/A
8:50 PM39 °FPartly sunny.12 mph81%29.09 "HgN/A
8:20 PM39 °FScattered clouds.14 mph81%29.09 "HgN/A
7:50 PM39 °FScattered showers. Partly sunny.14 mph81%29.09 "HgN/A
7:20 PM37 °FScattered showers. Broken clouds.24 mph87%29.09 "HgN/A
6:50 PM41 °FScattered showers. Scattered clouds.12 mph70%29.09 "HgN/A
6:20 PM41 °FScattered showers. Scattered clouds.3 mph76%29.09 "HgN/A
5:50 PM41 °FScattered clouds.3 mph70%29.09 "HgN/A
5:20 PM43 °FScattered clouds.3 mph71%29.12 "HgN/A
4:50 PM43 °FScattered clouds.5 mph71%29.12 "HgN/A
4:20 PM43 °FScattered clouds.7 mph66%29.12 "HgN/A
3:50 PM45 °FScattered clouds.6 mph61%29.12 "HgN/A
3:20 PM43 °FPassing clouds.7 mph66%29.12 "HgN/A
2:50 PM43 °FPassing clouds.5 mph71%29.12 "HgN/A
2:20 PM43 °FPassing clouds.2 mph61%29.12 "HgN/A
1:50 PM43 °FPassing clouds.5 mph66%29.12 "HgN/A
1:20 PM43 °FPassing clouds.6 mph71%29.12 "HgN/A
12:50 PM43 °FPassing clouds.5 mph71%29.12 "HgN/A
11:50 AM41 °FPassing clouds.5 mph76%29.12 "HgN/A
11:20 AM41 °FPassing clouds.6 mph76%29.09 "HgN/A
10:50 AM41 °FPassing clouds.7 mph81%29.09 "HgN/A
10:20 AM39 °FPassing clouds.7 mph87%29.09 "HgN/A
9:50 AM37 °FPassing clouds.7 mph93%29.09 "HgN/A
9:20 AM36 °FScattered clouds.6 mph93%29.09 "HgN/A
8:50 AM36 °FScattered clouds.6 mph93%29.09 "HgN/A
8:20 AM32 °FScattered clouds.7 mph93%29.06 "HgN/A
7:20 AM34 °FPassing clouds.5 mph93%29.06 "HgN/A
6:50 AM32 °FPassing clouds.5 mph100%29.03 "HgN/A
6:20 AM30 °FPassing clouds.3 mph93%29.03 "HgN/A
Weather by CustomWeather, © 2015

See weather overviewHow to use our weather pages